�������l�o���
Date,Time,MP-1(��Sv/h),MP-2(��Sv/h),MP-3(��Sv/h),MP-4(��Sv/h),MP-5(��Sv/h),MP-6(��Sv/h),MP-7(��Sv/h),����,����(m/s),���J
2019/11/05,00:00,0.187,0.163,0.278,0.261,0.262,0.142,0.087,��,4.3,��
2019/11/05,00:10,0.187,0.163,0.279,0.260,0.263,0.141,0.087,��,4.2,��
2019/11/05,00:20,0.186,0.164,0.277,0.261,0.262,0.141,0.087,��,4.5,��
2019/11/05,00:30,0.185,0.163,0.278,0.260,0.261,0.142,0.087,���k��,3.4,��
2019/11/05,00:40,0.187,0.164,0.277,0.261,0.261,0.141,0.087,���k��,2.9,��
2019/11/05,00:50,0.186,0.163,0.279,0.260,0.261,0.142,0.087,���k��,3.4,��
2019/11/05,01:00,0.186,0.164,0.278,0.261,0.262,0.141,0.087,�k��,3.9,��
2019/11/05,01:10,0.187,0.164,0.279,0.261,0.261,0.141,0.087,�k�k��,2.4,��
2019/11/05,01:20,0.186,0.164,0.279,0.260,0.262,0.142,0.087,�k�k��,2.5,��
2019/11/05,01:30,0.186,0.164,0.278,0.260,0.262,0.141,0.088,�k��,1.6,��
2019/11/05,01:40,0.187,0.163,0.277,0.260,0.262,0.141,0.087,���k��,2.4,��
2019/11/05,01:50,0.187,0.164,0.279,0.260,0.262,0.142,0.087,��,2.1,��
2019/11/05,02:00,0.185,0.164,0.279,0.261,0.262,0.141,0.087,���k��,2.3,��
2019/11/05,02:10,0.186,0.163,0.277,0.261,0.262,0.141,0.088,�k��,3.3,��
2019/11/05,02:20,0.187,0.164,0.279,0.261,0.262,0.141,0.086,���k��,4.1,��
2019/11/05,02:30,0.187,0.162,0.278,0.260,0.262,0.141,0.087,���k��,3.4,��
2019/11/05,02:40,0.187,0.162,0.277,0.260,0.264,0.141,0.087,���k��,3.3,��
2019/11/05,02:50,0.186,0.165,0.278,0.261,0.263,0.142,0.087,���k��,4.9,��
2019/11/05,03:00,0.186,0.163,0.277,0.260,0.263,0.142,0.087,���k��,5.1,��
2019/11/05,03:10,0.186,0.163,0.278,0.260,0.262,0.142,0.088,���k��,6.3,��
2019/11/05,03:20,0.186,0.163,0.279,0.261,0.261,0.141,0.088,���k��,5.9,��
2019/11/05,03:30,0.187,0.164,0.279,0.260,0.262,0.142,0.086,���k��,5.5,��
2019/11/05,03:40,0.185,0.163,0.279,0.261,0.264,0.142,0.087,���k��,4.7,��
2019/11/05,03:50,0.186,0.163,0.278,0.260,0.261,0.141,0.087,���k��,3.4,��
2019/11/05,04:00,0.185,0.164,0.279,0.261,0.262,0.142,0.087,���k��,4.6,��
2019/11/05,04:10,0.187,0.164,0.279,0.260,0.263,0.142,0.087,���k��,4.5,��
2019/11/05,04:20,0.186,0.163,0.278,0.261,0.263,0.141,0.087,���k��,4.9,��
2019/11/05,04:30,0.186,0.163,0.278,0.259,0.262,0.141,0.088,���k��,4.4,��
2019/11/05,04:40,0.187,0.164,0.278,0.261,0.262,0.142,0.087,���k��,5.1,��
2019/11/05,04:50,0.187,0.164,0.278,0.260,0.263,0.142,0.087,���k��,5.2,��
2019/11/05,05:00,0.185,0.164,0.278,0.259,0.261,0.142,0.087,�k��,4.8,��
2019/11/05,05:10,0.186,0.164,0.276,0.260,0.261,0.141,0.086,�k��,5.1,��
2019/11/05,05:20,0.187,0.164,0.277,0.260,0.263,0.141,0.087,�k��,4.7,��
2019/11/05,05:30,0.186,0.164,0.278,0.260,0.262,0.141,0.087,�k��,5.4,��
2019/11/05,05:40,0.186,0.163,0.278,0.260,0.262,0.141,0.087,�k��,5.4,��
2019/11/05,05:50,0.187,0.164,0.277,0.261,0.262,0.142,0.088,�k��,5.1,��
2019/11/05,06:00,0.187,0.164,0.279,0.260,0.262,0.142,0.087,�k��,4.4,��
2019/11/05,06:10,0.186,0.164,0.280,0.259,0.263,0.141,0.087,�k��,3.9,��
2019/11/05,06:20,0.186,0.164,0.277,0.261,0.260,0.141,0.087,�k��,3.0,��
2019/11/05,06:30,0.186,0.164,0.279,0.260,0.261,0.141,0.087,���k��,2.1,��
2019/11/05,06:40,0.186,0.163,0.278,0.260,0.261,0.141,0.087,���쐼,1.9,��
2019/11/05,06:50,0.186,0.164,0.279,0.260,0.264,0.141,0.087,��,0.8,��
2019/11/05,07:00,0.186,0.164,0.278,0.260,0.263,0.141,0.086,-,CALM,��
2019/11/05,07:10,0.186,0.164,0.278,0.261,0.263,0.141,0.086,��,1.0,��
2019/11/05,07:20,0.186,0.163,0.278,0.259,0.261,0.141,0.086,-,CALM,��
2019/11/05,07:30,0.187,0.163,0.277,0.259,0.261,0.140,0.087,-,CALM,��
2019/11/05,07:40,0.186,0.164,0.278,0.259,0.263,0.142,0.087,-,CALM,��
2019/11/05,07:50,0.186,0.163,0.280,0.259,0.262,0.141,0.087,-,CALM,��
2019/11/05,08:00,0.186,0.163,0.278,0.259,0.261,0.141,0.087,�k�k��,1.1,��
2019/11/05,08:10,0.186,0.163,0.277,0.259,0.264,0.141,0.087,��,0.6,��
2019/11/05,08:20,0.185,0.164,0.279,0.259,0.262,0.141,0.087,�쓌,2.3,��
2019/11/05,08:30,0.186,0.163,0.278,0.258,0.263,0.142,0.087,�쓌,2.2,��
2019/11/05,08:40,0.186,0.165,0.278,0.259,0.263,0.141,0.086,�쓌,1.4,��
2019/11/05,08:50,0.186,0.164,0.277,0.258,0.262,0.140,0.087,���쓌,1.4,��
2019/11/05,09:00,0.186,0.161,0.278,0.260,0.263,0.141,0.087,�k��,1.4,��
2019/11/05,09:10,0.186,0.162,0.277,0.258,0.262,0.141,0.087,��,1.0,��
2019/11/05,09:20,0.186,0.163,0.279,0.260,0.263,0.141,0.087,���쓌,2.1,��
2019/11/05,09:30,0.185,0.163,0.277,0.258,0.259,0.141,0.088,���쓌,2.8,��
2019/11/05,09:40,0.185,0.162,0.278,0.261,0.264,0.141,0.087,���k��,3.2,��
2019/11/05,09:50,0.184,0.164,0.278,0.260,0.260,0.141,0.087,��,2.8,��
2019/11/05,10:00,0.185,0.162,0.277,0.258,0.263,0.141,0.087,��,2.7,��
2019/11/05,10:10,0.185,0.163,0.277,0.261,0.261,0.141,0.087,��,2.5,��
2019/11/05,10:20,0.185,0.162,0.278,0.259,0.262,0.142,0.088,���k��,2.7,��
2019/11/05,10:30,0.187,0.164,0.277,0.260,0.260,0.141,0.086,��,2.5,��
2019/11/05,10:40,0.185,0.163,0.278,0.260,0.262,0.141,0.088,���k��,2.5,��
2019/11/05,10:50,0.186,0.163,0.276,0.260,0.262,0.142,0.087,��,2.4,��
2019/11/05,11:00,0.184,0.163,0.278,0.261,0.261,0.141,0.088,��,2.0,��
2019/11/05,11:10,0.185,0.164,0.277,0.257,0.263,0.141,0.087,��,1.9,��
2019/11/05,11:20,0.186,0.163,0.278,0.260,0.261,0.142,0.086,��,1.7,��
2019/11/05,11:30,0.184,0.163,0.278,0.259,0.264,0.141,0.087,���쓌,1.7,��
2019/11/05,11:40,0.186,0.163,0.277,0.261,0.261,0.141,0.086,��,1.2,��
2019/11/05,11:50,0.185,0.163,0.278,0.261,0.262,0.141,0.087,��,1.7,��
2019/11/05,12:00,0.186,0.163,0.277,0.259,0.264,0.142,0.087,���쓌,3.9,��
2019/11/05,12:10,0.187,0.163,0.279,0.261,0.261,0.141,0.087,��,1.0,��
2019/11/05,12:20,0.186,0.164,0.277,0.259,0.260,0.142,0.088,���k��,2.6,��
2019/11/05,12:30,0.185,0.163,0.277,0.258,0.262,0.141,0.087,�쐼,2.1,��
2019/11/05,12:40,0.184,0.162,0.275,0.258,0.261,0.142,0.087,��,6.9,��
2019/11/05,12:50,0.186,0.163,0.279,0.261,0.260,0.141,0.087,��,6.4,��
2019/11/05,13:00,0.185,0.162,0.275,0.259,0.264,0.143,0.087,��,5.9,��
2019/11/05,13:10,0.184,0.164,0.278,0.257,0.263,0.141,0.086,���k��,5.7,��
2019/11/05,13:20,0.186,0.164,0.276,0.261,0.260,0.141,0.087,���k��,5.4,��
2019/11/05,13:30,0.185,0.164,0.278,0.260,0.263,0.141,0.086,���k��,3.8,��
2019/11/05,13:40,0.188,0.165,0.275,0.258,0.263,0.141,0.086,���k��,3.7,��
2019/11/05,13:50,0.188,0.163,0.277,0.260,0.262,0.141,0.087,���k��,4.0,��
2019/11/05,14:00,0.185,0.163,0.276,0.261,0.262,0.141,0.086,��,5.3,��
2019/11/05,14:10,0.186,0.163,0.279,0.260,0.263,0.140,0.087,���쐼,7.7,��
2019/11/05,14:20,0.186,0.163,0.277,0.262,0.262,0.140,0.087,��,5.9,��
2019/11/05,14:30,0.187,0.163,0.278,0.259,0.266,0.142,0.088,��,5.0,��
2019/11/05,14:40,0.186,0.164,0.278,0.261,0.261,0.141,0.087,��,4.7,��
2019/11/05,14:50,0.186,0.164,0.278,0.261,0.264,0.141,0.087,��,3.8,��
2019/11/05,15:00,0.186,0.164,0.278,0.262,0.263,0.141,0.087,��,3.2,��
2019/11/05,15:10,0.187,0.164,0.279,0.260,0.265,0.142,0.087,�쐼,1.4,��
2019/11/05,15:20,0.186,0.164,0.276,0.261,0.262,0.141,0.087,��,2.5,��
2019/11/05,15:30,0.187,0.164,0.278,0.259,0.263,0.141,0.087,�k�k��,1.0,��
2019/11/05,15:40,0.186,0.165,0.277,0.261,0.261,0.141,0.087,�k�k��,0.7,��
2019/11/05,15:50,0.187,0.163,0.278,0.260,0.264,0.142,0.087,���k��,2.8,��
2019/11/05,16:00,0.186,0.164,0.277,0.261,0.261,0.142,0.086,��,5.4,��
2019/11/05,16:10,0.186,0.164,0.279,0.261,0.264,0.142,0.087,���k��,5.4,��
2019/11/05,16:20,0.186,0.165,0.278,0.261,0.262,0.142,0.087,���k��,5.5,��
2019/11/05,16:30,0.186,0.165,0.278,0.261,0.264,0.141,0.087,��,5.7,��
2019/11/05,16:40,0.187,0.164,0.278,0.260,0.264,0.141,0.088,��,5.5,��
2019/11/05,16:50,0.187,0.164,0.277,0.262,0.263,0.142,0.087,��,4.9,��
2019/11/05,17:00,0.187,0.164,0.278,0.261,0.263,0.141,0.087,��,5.5,��
2019/11/05,17:10,0.186,0.164,0.278,0.261,0.264,0.141,0.088,���k��,5.2,��
2019/11/05,17:20,0.186,0.164,0.279,0.261,0.265,0.143,0.087,��,5.3,��
2019/11/05,17:30,0.187,0.164,0.280,0.260,0.262,0.142,0.087,��,6.1,��
2019/11/05,17:40,0.186,0.164,0.278,0.261,0.263,0.142,0.087,��,6.7,��
2019/11/05,17:50,0.187,0.164,0.279,0.262,0.265,0.142,0.087,���k��,7.2,��
2019/11/05,18:00,0.186,0.165,0.279,0.262,0.264,0.142,0.086,���k��,7.4,��
2019/11/05,18:10,0.186,0.164,0.279,0.263,0.264,0.142,0.087,���k��,8.8,��
2019/11/05,18:20,0.187,0.165,0.279,0.261,0.264,0.142,0.088,��,8.1,��
2019/11/05,18:30,0.186,0.164,0.279,0.262,0.263,0.142,0.087,���k��,7.9,��
2019/11/05,18:40,0.186,0.164,0.279,0.262,0.263,0.141,0.087,��,5.8,��
2019/11/05,18:50,0.187,0.164,0.279,0.262,0.263,0.142,0.087,��,6.1,��
2019/11/05,19:00,0.186,0.164,0.277,0.261,0.263,0.142,0.087,���k��,6.9,��
2019/11/05,19:10,0.186,0.165,0.279,0.260,0.264,0.142,0.088,��,7.9,��
2019/11/05,19:20,0.187,0.164,0.279,0.260,0.262,0.141,0.087,���k��,6.7,��
2019/11/05,19:30,0.186,0.164,0.278,0.262,0.262,0.142,0.087,��,6.3,��
2019/11/05,19:40,0.187,0.163,0.280,0.261,0.263,0.143,0.088,���k��,5.2,��
2019/11/05,19:50,0.186,0.164,0.280,0.260,0.263,0.141,0.088,��,3.1,��
2019/11/05,20:00,0.186,0.164,0.278,0.261,0.263,0.142,0.087,��쐼,0.6,��
2019/11/05,20:10,0.186,0.164,0.280,0.261,0.263,0.143,0.087,���k��,1.1,��
2019/11/05,20:20,0.187,0.164,0.279,0.262,0.262,0.141,0.087,-,CALM,��
2019/11/05,20:30,0.187,0.164,0.279,0.262,0.263,0.142,0.088,��쓌,0.7,��
2019/11/05,20:40,0.188,0.165,0.281,0.262,0.262,0.141,0.087,�쐼,1.2,��
2019/11/05,20:50,0.187,0.164,0.279,0.261,0.262,0.142,0.088,��쐼,1.1,��
2019/11/05,21:00,0.188,0.165,0.278,0.262,0.263,0.142,0.087,�쐼,1.3,��
2019/11/05,21:10,0.187,0.165,0.279,0.261,0.263,0.142,0.087,�쐼,2.3,��
2019/11/05,21:20,0.186,0.164,0.281,0.261,0.263,0.142,0.086,���쐼,2.8,��
2019/11/05,21:30,0.187,0.165,0.278,0.260,0.263,0.142,0.088,��,2.9,��
2019/11/05,21:40,0.187,0.164,0.279,0.262,0.262,0.142,0.087,��,2.7,��
2019/11/05,21:50,0.187,0.164,0.280,0.261,0.263,0.142,0.087,��,3.2,��
2019/11/05,22:00,0.186,0.164,0.279,0.261,0.263,0.141,0.088,��,3.0,��
2019/11/05,22:10,0.187,0.163,0.279,0.263,0.263,0.143,0.087,���쐼,2.8,��
2019/11/05,22:20,0.186,0.165,0.279,0.261,0.262,0.142,0.087,��,2.4,��
2019/11/05,22:30,0.187,0.166,0.278,0.262,0.263,0.141,0.087,���쐼,1.5,��
2019/11/05,22:40,0.187,0.163,0.279,0.262,0.262,0.142,0.087,���쐼,1.4,��
2019/11/05,22:50,0.186,0.164,0.279,0.262,0.264,0.142,0.088,�쐼,2.7,��
2019/11/05,23:00,0.187,0.164,0.279,0.261,0.263,0.142,0.088,��쐼,3.8,��
2019/11/05,23:10,0.187,0.165,0.279,0.263,0.264,0.142,0.088,��,4.8,��
2019/11/05,23:20,0.186,0.164,0.279,0.263,0.263,0.141,0.087,��쐼,3.9,��
2019/11/05,23:30,0.186,0.164,0.280,0.262,0.263,0.143,0.087,�쐼,5.3,��
2019/11/05,23:40,0.188,0.165,0.279,0.262,0.263,0.142,0.088,�쐼,6.9,��
2019/11/05,23:50,0.186,0.164,0.279,0.263,0.263,0.142,0.087,�쐼,5.5,��
